Powrót do katalogu

SL-14 R/B

AktywnyPO
NORAD 22188·ROCKET BODY·🇷🇺 Russia

Wystrzelony Oct 20, 1992 z Plesetsk Cosmodrome

Loading…

Następne Przeloty (najbliższe 24 godziny)

TLE

ŚwieżeSource: Space-Track

Epoka: Sep 14, 2026, 16:50 UTC

1 22188U 92068G   26257.70147758  .00000007  00000-0 -18118-4 0  9998
2 22188  82.5993  38.9446 0044320 280.1404  90.4321 12.54920267552835

Śledź SL-14 R/B w czasie rzeczywistym z AllMySat

Download on the App Store